[[{"header":{"parameterUnit":"m.s-1","parameterCategory":1,"la1":30.2991,"la2":30.254,"lo1":-89.0895,"lo2":-89.0444,"dy":0.0017,"dx":0.0017,"nx":28,"ny":28,"refTime":"2024-11-23T09:00:00:Z","depth":0,"parameterNumber":2,"parameterNumberName":"U-component_of_WINDS"},"data":[0,0,0,0,0,0,0,0,0,0,0,0,0,0,0,0,0,0,0,0,0,0,0,0,0,0,0,0,0,0,0,0,0,0,0,0,0,0,0,0,0,0,0,0,0,0,0,0,0,0,0,0,0,0,0,0,0,0,0.3181,0.3182,0,0.3214,0.3214,0.3214,0.3218,0.3218,0.3217,0.3217,0.3248,0.3249,0.325,0,0,0,0,0,0,0,0,0,0,0,0,0,0.3121,0.3122,0.3181,0.3182,0.3182,0.3214,0.3214,0.3215,0.3218,0.3218,0.3217,0.3217,0.3248,0.3249,0.3251,0,0,0,0,0,0,0,0,0,0,0,0,0,0.315,0.3122,0.3181,0.3188,0.3189,0.3214,0.3214,0.3215,0.3218,0.3218,0.3217,0.3217,0.3247,0.3249,0.3251,0.3271,0,0,0.3256,0.3257,0,0,0,0,0,0,0,0,0.3148,0.3152,0.3186,0.3187,0.3188,0.3211,0.3204,0.3233,0.3218,0.3207,0.3217,0.3216,0.3236,0.3239,0.3246,0.3272,0.3274,0.3256,0.3257,0.3258,0.3258,0,0,0,0,0,0,0,0.3146,0.315,0.3194,0.3187,0.3188,0.3188,0.3192,0.321,0.3224,0.3208,0.3208,0.3212,0.3237,0.3244,0.3247,0.3274,0.3256,0.3258,0.3259,0.3259,0.3318,0.3319,0,0,0,0,0,0,0.3143,0.3149,0.3193,0.3195,0.3167,0.319,0.3194,0.3204,0.3224,0.3226,0.3212,0.3212,0.3242,0.3245,0.3248,0.3272,0.3258,0.3259,0.326,0.3318,0.3318,0.3319,0,0,0,0,0,0,0.3142,0.3147,0.3192,0.3172,0.3178,0.3192,0.3203,0.3205,0.3213,0.3227,0.3229,0.3218,0.3241,0.3245,0.3265,0.3273,0.326,0.3262,0.3317,0.3318,0.3319,0.3322,0,0,0,0,0,0,0.314,0.3146,0.3155,0.3172,0.3179,0.3209,0.3204,0.3206,0.3216,0.3216,0.3233,0.3235,0.3241,0.3263,0.3267,0.3276,0.3263,0.3316,0.3317,0.3318,0.3321,0.3322,0.3324,0,0,0,0,0,0.3138,0.3154,0.3155,0.316,0.3189,0.321,0.3213,0.3221,0.3217,0.3225,0.3234,0.3234,0.3272,0.3265,0.3269,0.3279,0.3316,0.3317,0.3318,0.332,0.3322,0.3324,0,0,0,0,0,0,0.3136,0.3156,0.3158,0.318,0.3193,0.321,0.3221,0.3223,0.3237,0.3236,0.3244,0.3248,0.3267,0.3275,0.3266,0.3299,0.3293,0.3296,0.3293,0.3295,0.3297,0.3294,0.3264,0,0,0,0,0,0.3139,0.3154,0.317,0.3189,0.3195,0.3207,0.3216,0.322,0.3234,0.3239,0.325,0.3263,0.3277,0.3287,0.3301,0.3322,0.3325,0.3331,0.3332,0.3333,0.3335,0.3346,0.3349,0.3323,0.3323,0.3323,0,0,0.3144,0.3156,0.3165,0.3189,0.3199,0.3214,0.3211,0.3227,0.3239,0.3242,0.3261,0.3269,0.3284,0.3304,0.3314,0.3311,0.3343,0.3335,0.3336,0.3337,0.3348,0.335,0.3353,0.3324,0.3324,0.3324,0,0,0.316,0.3172,0.3188,0.3199,0.3215,0.3223,0.3227,0.3243,0.3249,0.3269,0.3271,0.3284,0.331,0.332,0.3328,0.3349,0.335,0.3353,0.3361,0.3372,0.3374,0.3376,0.3382,0.3385,0.3355,0.3355,0.3355,0,0.3164,0.3187,0.3196,0.3212,0.3222,0.3226,0.3242,0.3252,0.3272,0.3278,0.3276,0.3307,0.3317,0.334,0.3345,0.3352,0.3356,0.3351,0.3373,0.3375,0.3377,0.3383,0.3386,0.3355,0.3355,0.3355,0.3355,0,0.3191,0.3207,0.3218,0.3238,0.3249,0.3265,0.3275,0.3285,0.3289,0.3297,0.3317,0.3329,0.3346,0.3352,0.3355,0.3375,0.3373,0.3371,0.3366,0.3379,0.3386,0.3388,0.3356,0.3356,0.3355,0.3355,0,0,0.3207,0.3232,0.3235,0.3244,0.3263,0.3275,0.3291,0.3308,0.3316,0.333,0.3343,0.3364,0.3363,0.3373,0.3378,0.3387,0.3402,0.3385,0.3385,0.3387,0.3424,0.3425,0.3428,0.3403,0.3404,0.3404,0.3423,0,0.3225,0.3255,0.3263,0.3287,0.3302,0.3306,0.332,0.3332,0.334,0.3353,0.3362,0.3376,0.3374,0.338,0.339,0.3398,0.341,0.3397,0.3415,0.3415,0.3411,0.3431,0.3432,0.3449,0.3425,0.3426,0.3426,0,0.3251,0.3265,0.3292,0.3308,0.3314,0.3327,0.3343,0.3356,0.337,0.3374,0.3385,0.3389,0.3405,0.3399,0.3421,0.3413,0.342,0.3426,0.3427,0.3428,0.3421,0.3433,0.3454,0.3457,0.343,0.343,0.3429,0,0.3259,0.3286,0.3305,0.3312,0.3332,0.334,0.3349,0.3363,0.3372,0.3386,0.3392,0.3408,0.3416,0.3427,0.3435,0.343,0.3456,0.3451,0.346,0.346,0.3465,0.3465,0.3488,0.3471,0.3471,0.3471,0.3471,0,0.3279,0.3295,0.3309,0.332,0.3338,0.3347,0.3364,0.3372,0.3384,0.3397,0.3402,0.3414,0.3423,0.3436,0.3442,0.3459,0.3463,0.3467,0.3468,0.3466,0.3466,0.3471,0.347,0.3471,0.3471,0.3471,0.3471,0,0.3291,0.3302,0.3323,0.334,0.3344,0.3356,0.3371,0.3382,0.339,0.3406,0.341,0.3422,0.3438,0.3447,0.3466,0.347,0.3489,0.349,0.3485,0.3485,0.3494,0.3493,0.3521,0.3525,0.3505,0.3506,0.3506,0,0.3303,0.3315,0.3334,0.3343,0.3352,0.3366,0.3376,0.3385,0.3395,0.3412,0.3421,0.3437,0.345,0.3475,0.3485,0.35,0.3501,0.351,0.3503,0.3501,0.3501,0.35,0.3501,0.3511,0.3511,0.3511,0.3511,0,0.3322,0.3327,0.3341,0.3357,0.3369,0.3382,0.3395,0.3402,0.3413,0.3424,0.3441,0.3451,0.3471,0.3487,0.3502,0.351,0.3512,0.3513,0.3516,0.3514,0.351,0.3512,0.3487,0.3513,0.3512,0.3512,0.3512,0.3512,0.3334,0.3345,0.336,0.3376,0.3387,0.3399,0.341,0.3419,0.3433,0.3451,0.3455,0.3472,0.3485,0.3507,0.3515,0.3528,0.3526,0.3531,0.3532,0.3532,0.3532,0.3509,0.3531,0.3531,0.3531,0.3531,0.3531,0,0.3353,0.3363,0.3378,0.3396,0.3408,0.341,0.3424,0.3434,0.3449,0.3462,0.3475,0.3493,0.3508,0.352,0.3535,0.3543,0.3545,0.3547,0.3546,0.3548,0.3533,0.3529,0.3546,0.3546,0.3546,0.3546,0.3546,0.3546,0.3365,0.3383,0.3389,0.3413,0.3423,0.344,0.3448,0.3459,0.3469,0.3489,0.3502,0.351,0.3522,0.3538,0.3551,0.3554,0.356,0.3562,0.3565,0.3551,0.3549,0.3547,0.3544,0.3563,0.3563,0.3578,0.3578,0.3579]},{"header":{"parameterUnit":"m.s-1","parameterCategory":1,"la1":30.2991,"la2":30.254,"lo1":-89.0895,"lo2":-89.0444,"dy":0.0017,"dx":0.0017,"nx":28,"ny":28,"refTime":"2024-11-23T09:00:00:Z","depth":0,"parameterNumber":3,"parameterNumberName":"V-component_of_WINDS"},"data":[0,0,0,0,0,0,0,0,0,0,0,0,0,0,0,0,0,0,0,0,0,0,0,0,0,0,0,0,0,0,0,0,0,0,0,0,0,0,0,0,0,0,0,0,0,0,0,0,0,0,0,0,0,0,0,0,0,0,1.2415,1.2415,0,1.2358,1.2357,1.2357,1.23,1.2299,1.2298,1.2297,1.2237,1.2236,1.2235,0,0,0,0,0,0,0,0,0,0,0,0,0,1.2476,1.2475,1.2415,1.2415,1.2414,1.2358,1.2357,1.2356,1.23,1.2299,1.2298,1.2297,1.2238,1.2236,1.2235,0,0,0,0,0,0,0,0,0,0,0,0,0,1.2437,1.2475,1.2415,1.2379,1.2375,1.2358,1.2357,1.2356,1.23,1.2299,1.2298,1.2297,1.2238,1.2237,1.2235,1.2249,0,0,1.2231,1.223,0,0,0,0,0,0,0,0,1.2439,1.2435,1.2385,1.2381,1.2377,1.2335,1.2356,1.232,1.23,1.2328,1.2297,1.2296,1.2271,1.2266,1.2258,1.2246,1.2244,1.2231,1.223,1.223,1.2229,0,0,0,0,0,0,0,1.2442,1.2437,1.2393,1.2384,1.238,1.2365,1.2359,1.2349,1.2306,1.2326,1.2322,1.2316,1.2268,1.2259,1.2256,1.2243,1.2231,1.223,1.2229,1.2228,1.224,1.2242,0,0,0,0,0,0,1.245,1.244,1.2394,1.2391,1.2406,1.2365,1.2358,1.2349,1.2306,1.2299,1.2317,1.2313,1.2262,1.2258,1.2254,1.2267,1.223,1.2228,1.2227,1.2239,1.2241,1.2242,0,0,0,0,0,0,1.2452,1.2447,1.2397,1.2414,1.2407,1.2365,1.2357,1.2349,1.234,1.2299,1.2291,1.2316,1.2261,1.2256,1.2251,1.2264,1.2228,1.2226,1.2238,1.224,1.2241,1.2294,0,0,0,0,0,0,1.2454,1.2448,1.2453,1.2415,1.2406,1.2395,1.2357,1.2349,1.2338,1.2333,1.2296,1.2289,1.226,1.2253,1.225,1.2262,1.2225,1.2237,1.2239,1.2241,1.2291,1.2298,1.2303,0,0,0,0,0,1.2456,1.2469,1.2453,1.2448,1.2411,1.2396,1.2391,1.2357,1.234,1.2344,1.2318,1.229,1.2264,1.2253,1.2249,1.2261,1.2235,1.2238,1.2241,1.2289,1.2296,1.2303,0,0,0,0,0,0,1.2509,1.2464,1.2445,1.2446,1.2426,1.2386,1.2391,1.2367,1.235,1.2346,1.2305,1.2297,1.2297,1.2278,1.2267,1.2272,1.2246,1.2248,1.2284,1.2291,1.2297,1.2301,1.2224,0,0,0,0,0,1.2521,1.2513,1.2474,1.2478,1.2469,1.2432,1.2424,1.24,1.2377,1.2367,1.2341,1.2319,1.2306,1.2298,1.2283,1.2289,1.228,1.2295,1.2301,1.2306,1.2308,1.231,1.2316,1.225,1.225,1.225,0,0,1.2545,1.252,1.2517,1.2489,1.2469,1.2462,1.2425,1.2418,1.2411,1.2366,1.236,1.234,1.2313,1.2314,1.2313,1.2298,1.2324,1.231,1.2314,1.2312,1.2313,1.2319,1.2325,1.2252,1.2252,1.2251,0,0,1.2585,1.2565,1.2567,1.2549,1.2522,1.2497,1.2498,1.2463,1.2448,1.2441,1.2407,1.2399,1.2377,1.2359,1.2347,1.2383,1.2357,1.238,1.241,1.2413,1.2418,1.2422,1.2434,1.2439,1.2381,1.2382,1.2382,0,1.2619,1.2605,1.2571,1.2567,1.2555,1.2515,1.2517,1.2501,1.247,1.2463,1.2448,1.242,1.2399,1.2395,1.2404,1.2396,1.2395,1.2382,1.242,1.2424,1.2427,1.2438,1.2443,1.2384,1.2384,1.2384,1.2384,0,1.2648,1.264,1.2645,1.2616,1.2606,1.2604,1.257,1.2563,1.2541,1.2519,1.2513,1.2486,1.2466,1.2464,1.2441,1.2457,1.2449,1.2428,1.24,1.2437,1.2447,1.2451,1.2389,1.2388,1.2387,1.2386,0,0,1.2717,1.2671,1.2673,1.266,1.2628,1.262,1.2618,1.2599,1.2594,1.2574,1.2571,1.2554,1.2534,1.2521,1.2497,1.2499,1.2529,1.2477,1.2476,1.2487,1.2544,1.2559,1.2564,1.2512,1.2513,1.2513,1.2546,0,1.275,1.2743,1.2713,1.2715,1.2706,1.267,1.2667,1.2647,1.2626,1.2616,1.2593,1.2582,1.2557,1.2549,1.255,1.2525,1.2539,1.2522,1.2507,1.2507,1.2514,1.257,1.2585,1.2617,1.2549,1.255,1.255,0,1.2788,1.2772,1.2773,1.2741,1.2737,1.2735,1.2715,1.2707,1.2683,1.2668,1.2655,1.2628,1.2623,1.2599,1.2591,1.2581,1.2573,1.256,1.2561,1.2557,1.253,1.2566,1.2626,1.2631,1.2556,1.2556,1.2555,0,1.2837,1.2816,1.2814,1.2804,1.2767,1.2767,1.2752,1.2727,1.2718,1.2701,1.2695,1.2678,1.2668,1.2656,1.2625,1.261,1.2621,1.2594,1.2608,1.2609,1.261,1.261,1.2669,1.2608,1.2608,1.2608,1.2608,0,1.2877,1.2879,1.2836,1.2834,1.2835,1.2802,1.2804,1.2785,1.2764,1.2758,1.2726,1.2721,1.2682,1.2672,1.2649,1.2646,1.2642,1.263,1.2623,1.2632,1.2633,1.2625,1.2622,1.2609,1.2609,1.2608,1.2608,0,1.2931,1.2903,1.2898,1.2864,1.2856,1.2859,1.283,1.2827,1.2805,1.2799,1.2795,1.2761,1.2748,1.2717,1.2697,1.2681,1.2684,1.2673,1.2692,1.2688,1.2703,1.2702,1.2757,1.2763,1.27,1.27,1.2701,0,1.2958,1.2958,1.2926,1.292,1.2906,1.2897,1.2888,1.2855,1.2847,1.2821,1.2822,1.2807,1.2794,1.2776,1.2749,1.2733,1.272,1.2741,1.2718,1.2727,1.272,1.2719,1.2719,1.2746,1.2747,1.2747,1.2748,0,1.3007,1.2994,1.2982,1.2966,1.2956,1.2941,1.2925,1.2922,1.2885,1.2878,1.2865,1.2855,1.2835,1.2821,1.2801,1.2785,1.276,1.2756,1.2758,1.2766,1.2777,1.2771,1.2705,1.2754,1.2754,1.2753,1.2753,1.2753,1.3048,1.3047,1.3024,1.3012,1.2997,1.2983,1.2979,1.2957,1.2947,1.2928,1.291,1.2899,1.2877,1.2848,1.2834,1.2825,1.2812,1.2816,1.2816,1.2817,1.2821,1.278,1.2822,1.2821,1.2821,1.2821,1.2821,0,1.3095,1.3079,1.3069,1.3047,1.3038,1.3018,1.2999,1.2993,1.2984,1.2966,1.2954,1.294,1.2926,1.2899,1.2883,1.2881,1.287,1.2878,1.2877,1.2874,1.2834,1.2833,1.2888,1.2888,1.2888,1.2888,1.2888,1.2888,1.3118,1.3116,1.31,1.309,1.3073,1.3063,1.3055,1.3041,1.3027,1.3013,1.3002,1.2985,1.2963,1.2946,1.2932,1.2925,1.292,1.2932,1.2921,1.2883,1.2877,1.2871,1.287,1.2932,1.2932,1.2961,1.2962,1.2962]}]]